{"data":{"norad_id":47840,"epoch":"2026-05-24T15:12:42.169824Z","epoch_age_seconds":106621,"freshness":"FRESH","line1":"1 47840U 21018BF  26144.63382141  .00005766  00000+0  19730-3 0  9996","line2":"2 47840  53.1595 245.9944 0001080  92.6707 267.4419 15.31720648288390","mean_motion":15.31720648,"eccentricity":0.000108,"inclination_deg":53.1595,"raan_deg":245.9944,"arg_perigee_deg":92.6707,"mean_anomaly_deg":267.4419,"bstar":0.0001973,"rev_number":28839,"period_min":94.011920638417,"perigee_km":469.93877323542,"apogee_km":471.41811737161,"semimajor_km":6848.8154453035,"source":"CELESTRAK","updated_at":"2026-05-25T13:38:16.608017Z"}}